Flight Information

DEPARTURE
BULLHEAD CITY, AZ
Elevation:
707
Runways:
16/34 - 8501x150 - ASPH-G
ATIS:
119.825
Ground:
118.25
Tower:
BULLHEAD TOWER 123.9
DESTINATION
,
Elevation:
TPA:
1000 (est.)


6591.7 NM75° True-14° Var61° HDG

Flight Plan:
(click to file on line)

1. Type
2. Aircraft Identification
3. Aircraft Type / Special Equipment
4. True Airspeed
kts
5. Departure Airport
(ICAO code)
6. Arriving Airport
(ICAO code)
7. Cruising Altitude
ft
8. Alternate Airport
(ICAO code)
9. Route of Flight
10. Remarks


00:00:00 Departure ATIS: Destination ATIS:

Clearance Limit:
Route:
Altitude: Expect in minutes
Frequency:
Transponder: (7500 Hijack / 7600 Lost Comms / 7700 Emergency)


KIFP 282247Z 35024KT 20SM BKN170 17/M12 A3030
Time: 2022-01-28T22:47:00Z
1643410412
Winds: 350 @ 24 kts
Visibility: 20.0 sm
Clouds (AGL): BKN 17000
Temperature: 17.0 C
Dew Point: -12.0 C
Pressure: 30.301182 in Hgbr


Notes:

Data extracted from FAA Digital Chart Supplement. Effective: 0901Z Thursday, DEC 2, 2021 to 0901Z Thursday, JAN 27, 2022
Current ATIS data is provided courtisy of PilotEdge.